NIMBUS 2 DEB, 37889

Orbit data source: Space-Track

NIMBUS 2 DEB, 37889 is space debris in SSO originally from a launch on Sun, 15 May 1966 UTC launched from the Air Force Western Test Range (AFWTR). Debris objects in space refer to the collection of defunct objects orbiting the Earth. Examples of debris include non-operational satellites, rocket bodies, and fragments generated from explosions, collisions, or faulty payload assembly.

Loading next visibility...
Identifier
37889, 1966-040AU
Orbit
SSO
Country
Flag of USUS
Related business
Manufacturer
Unknown
Mission
Spacecraft
Bus & Motor
Unknown
Mass
Unknown
Launch date (UTC)
1966-05-15 (60 years ago)
Launch vehicle
Unknown
Launch site
Air Force Western Test Range (AFWTR)
Object type
Payload
Rocket body
Debris
Shape & HBR
Unknown shape, 0.1 m
Radar Cross Section
Small (<0.1 m²)

Expand to show TLE details & history
Last TLE update: 1 week ago

TLE from 1 week ago
0 NIMBUS 2 DEB
1 37889U 66040AU  26254.54342997  .00001595  00000-0  24304-2 0  9998
2 37889 100.5518 278.0255 0055462 327.8729 185.8794 13.53300455823808
Epoch: 2026-09-11T13:02Z
TLE epoch observation values (Epoch: 2026-09-11T13:02:32.349Z)
Latitude
25.86731°
Longitude
-83.01919°
Altitude
1,104.187 km
Speed
7.282 km/s
True Right ascension
06h 52m 43s
True Declination
25° 44' 20"
Sunlit
Object was in daylight at epoch
Visualization orbit readout
Latitude
Unknown
Longitude
Unknown
Altitude
Unknown
Speed
Unknown
Apparent Right ascension
Unknown
Apparent Declination
Unknown
Sunlit
N/A
Visualization observer readout
Local Sidereal Time
20:18:22
Azimuth
Unknown
Elevation
Unknown
Doppler factor
Unknown
Orbital elements
Apogee altitude
1,098.722 km
Perigee altitude
1,016.243 km
Semi-major axis
7,435.62 km
Eccentricity
0.00555
Inclination
100.5518°
RAAN
278.0255°
Arg. of periapsis
327.8729°
True anomaly
185.81474°
Mean anomaly
185.8794°
Eccentric anomaly
185.84703°
Mean motion
3.38507 °/min
Orbital period
106.35 mins
BSTAR
0.0024304
Loading maneuver chart data...
Computing Atmospheric mass density...
Loading historical data...
Loading historical data...
Loading historical data...
Loading historical data...
Loading historical data...
Loading historical data...
Loading historical data...

Documentation

Showing up to 5 results
|